[[{"header":{"parameterUnit":"m.s-1","parameterCategory":1,"la1":30.2991,"la2":30.254,"lo1":-89.0895,"lo2":-89.0444,"dy":0.0017,"dx":0.0017,"nx":28,"ny":28,"refTime":"2025-07-09T03:00:00:Z","depth":0,"parameterNumber":2,"parameterNumberName":"U-component_of_WINDS"},"data":[0,0,0,0,0,0,0,0,0,0,0,0,0,0,0,0,0,0,0,0,0,0,0,0,0,0,0,0,0,0,0,0,0,0,0,0,0,0,0,0,0,0,0,0,0,0,0,0,0,0,0,0,0,0,0,0,0,0,2.9451,2.9452,0,2.9553,2.9554,2.9555,2.9541,2.9539,2.9537,2.9536,2.9641,2.9645,2.965,0,0,0,0,0,0,0,0,0,0,0,0,0,2.9243,2.9247,2.9451,2.9452,2.9454,2.9553,2.9554,2.9556,2.9541,2.9539,2.9537,2.9535,2.964,2.9645,2.965,0,0,0,0,0,0,0,0,0,0,0,0,0,2.9338,2.9248,2.9451,2.9458,2.946,2.9553,2.9554,2.9556,2.9542,2.9539,2.9536,2.9534,2.9638,2.9644,2.9651,2.9743,0,0,2.9671,2.9674,0,0,0,0,0,0,0,0,2.9332,2.9345,2.9456,2.9458,2.946,2.9532,2.9519,2.9619,2.9542,2.9511,2.9536,2.9533,2.9607,2.9616,2.9641,2.9748,2.9752,2.9672,2.9676,2.9678,2.968,0,0,0,0,0,0,0,2.9326,2.9341,2.9491,2.9457,2.946,2.9456,2.9467,2.9538,2.9572,2.9513,2.9512,2.9525,2.9607,2.9634,2.9643,2.9754,2.9671,2.9677,2.9681,2.9684,2.9938,2.994,0,0,0,0,0,0,2.9317,2.9336,2.9488,2.9494,2.9389,2.9462,2.9474,2.9511,2.9571,2.9578,2.9527,2.9523,2.9624,2.9635,2.9647,2.9755,2.9678,2.9684,2.9688,2.9935,2.9938,2.9941,0,0,0,0,0,0,2.9313,2.9331,2.9484,2.9415,2.9434,2.9468,2.951,2.9515,2.9541,2.9581,2.9587,2.9548,2.9623,2.9637,2.9718,2.9759,2.9687,2.9693,2.9932,2.9936,2.994,2.9975,0,0,0,0,0,0,2.9307,2.9329,2.9365,2.9416,2.9438,2.9554,2.9513,2.9518,2.9553,2.9549,2.9603,2.9609,2.9622,2.9708,2.9725,2.9767,2.9699,2.9928,2.9934,2.9939,2.997,2.998,2.9988,0,0,0,0,0,2.93,2.9372,2.9367,2.9386,2.9483,2.9557,2.9569,2.9582,2.9556,2.9591,2.9617,2.9607,2.9752,2.9717,2.9735,2.9779,2.9926,2.9932,2.9938,2.9966,2.9978,2.9988,0,0,0,0,0,0,2.9326,2.9379,2.9374,2.9465,2.9506,2.9554,2.9599,2.9595,2.9645,2.9639,2.9654,2.9666,2.9747,2.9772,2.9731,2.987,2.9835,2.9845,2.985,2.9862,2.987,2.9862,2.9704,0,0,0,0,0,2.9342,2.9398,2.9441,2.9517,2.9538,2.9565,2.9598,2.9604,2.9648,2.9665,2.9696,2.9739,2.9794,2.983,2.9883,2.9975,2.9984,3.0014,3.0023,3.003,3.0038,3.0085,3.0098,2.9962,2.9962,2.9962,0,0,2.9377,2.9413,2.9447,2.9523,2.9556,2.9612,2.958,2.9642,2.9683,2.9675,2.9752,2.9776,2.9825,2.991,2.995,2.9934,3.0078,3.0038,3.0043,3.0048,3.0093,3.0106,3.0117,2.9966,2.9966,2.9965,0,0,2.9468,2.9502,2.9567,2.96,2.9649,2.9667,2.9682,2.9731,2.9746,2.9824,2.9818,2.9867,2.9962,2.9996,3.0025,3.0127,3.0119,3.0144,3.0189,3.0235,3.0246,3.0255,3.0289,3.0301,3.0152,3.0152,3.0152,0,2.9504,2.9589,2.9601,2.9663,2.9695,2.9689,2.9755,2.9787,2.9851,2.9873,2.9854,2.9971,3.0004,3.0096,3.012,3.0145,3.0162,3.0137,3.0244,3.0253,3.0262,3.0294,3.0307,3.0155,3.0155,3.0154,3.0154,0,2.963,2.9688,2.9735,2.9796,2.9834,2.9898,2.9919,2.9956,2.9958,2.9977,3.0055,3.0094,3.0153,3.0176,3.018,3.0268,3.0256,3.024,3.0205,3.0277,3.0307,3.032,3.0158,3.0157,3.0157,3.0156,0,0,2.974,2.9805,2.9822,2.9848,2.9902,2.9947,3.0009,3.0066,3.0096,3.0141,3.0192,3.0272,3.0257,3.029,3.0298,3.0339,3.0412,3.0318,3.0319,3.0331,3.0508,3.0518,3.0532,3.0408,3.0411,3.0413,3.0503,0,2.9833,2.9942,2.9955,3.0052,3.0104,3.0099,3.0153,3.0191,3.021,3.0257,3.0279,3.0333,3.0311,3.0331,3.0371,3.0395,3.0448,3.0389,3.0454,3.0456,3.0439,3.0548,3.0559,3.0642,3.0515,3.0517,3.0519,0,2.9957,3.0003,3.0105,3.0148,3.0171,3.0219,3.0271,3.0317,3.0359,3.037,3.0406,3.0408,3.0471,3.0435,3.0521,3.048,3.0508,3.0524,3.0527,3.0532,3.049,3.0553,3.0669,3.0681,3.0538,3.0537,3.0535,0,3.0023,3.0111,3.0183,3.0206,3.0259,3.0292,3.0316,3.0356,3.0389,3.0434,3.0455,3.0508,3.0536,3.0577,3.0592,3.0565,3.0676,3.0642,3.0685,3.0684,3.0707,3.0705,3.0827,3.0729,3.0729,3.0729,3.0729,0,3.0125,3.0186,3.0212,3.0256,3.0324,3.0338,3.0405,3.0427,3.0463,3.051,3.051,3.0554,3.0573,3.062,3.0633,3.07,3.0714,3.0723,3.0725,3.0721,3.072,3.0738,3.0731,3.0732,3.0732,3.0731,3.073,0,3.0209,3.0229,3.0306,3.035,3.0362,3.041,3.0447,3.0489,3.0507,3.0567,3.0582,3.061,3.0665,3.0685,3.0753,3.0761,3.0838,3.0837,3.0823,3.0823,3.0864,3.0858,3.1,3.1017,3.0911,3.0912,3.0913,0,3.0271,3.0318,3.0366,3.0397,3.0422,3.0473,3.0505,3.052,3.0554,3.0604,3.0639,3.0694,3.0738,3.0826,3.0853,3.0904,3.0902,3.0948,3.091,3.0903,3.0899,3.0895,3.0898,3.0954,3.0955,3.0956,3.0957,0,3.0378,3.0385,3.0432,3.0482,3.052,3.0561,3.06,3.0625,3.0646,3.0684,3.0739,3.0773,3.0841,3.0894,3.0946,3.097,3.0966,3.0969,3.0981,3.0976,3.0965,3.0969,3.0839,3.0965,3.0964,3.0964,3.0963,3.0963,3.0451,3.0491,3.0531,3.0582,3.0613,3.0649,3.0689,3.0711,3.0758,3.0813,3.082,3.0879,3.0918,3.0987,3.1013,3.1059,3.1047,3.1065,3.1069,3.1073,3.1074,3.096,3.1069,3.1069,3.1069,3.1069,3.1069,0,3.0555,3.058,3.0627,3.0681,3.0721,3.0714,3.0756,3.0789,3.0841,3.0878,3.0921,3.0984,3.1035,3.1065,3.1116,3.1147,3.1146,3.116,3.1156,3.1161,3.1084,3.1067,3.1159,3.1159,3.1159,3.1159,3.1159,3.1159,3.0614,3.0681,3.0692,3.0773,3.0798,3.0855,3.0879,3.0911,3.094,3.101,3.1052,3.1071,3.1105,3.1158,3.1204,3.1212,3.1229,3.1243,3.1249,3.1176,3.1167,3.1158,3.1142,3.1248,3.1248,3.1322,3.1323,3.1323]},{"header":{"parameterUnit":"m.s-1","parameterCategory":1,"la1":30.2991,"la2":30.254,"lo1":-89.0895,"lo2":-89.0444,"dy":0.0017,"dx":0.0017,"nx":28,"ny":28,"refTime":"2025-07-09T03:00:00:Z","depth":0,"parameterNumber":3,"parameterNumberName":"V-component_of_WINDS"},"data":[0,0,0,0,0,0,0,0,0,0,0,0,0,0,0,0,0,0,0,0,0,0,0,0,0,0,0,0,0,0,0,0,0,0,0,0,0,0,0,0,0,0,0,0,0,0,0,0,0,0,0,0,0,0,0,0,0,0,1.7959,1.7961,0,1.8072,1.8073,1.8074,1.811,1.811,1.8109,1.8109,1.8223,1.8226,1.823,0,0,0,0,0,0,0,0,0,0,0,0,0,1.7773,1.7776,1.7959,1.7961,1.7962,1.8072,1.8073,1.8075,1.811,1.811,1.8109,1.8108,1.8222,1.8226,1.823,0,0,0,0,0,0,0,0,0,0,0,0,0,1.7867,1.7777,1.7959,1.7993,1.7997,1.8071,1.8073,1.8075,1.811,1.811,1.8109,1.8108,1.822,1.8225,1.8231,1.8279,0,0,1.8247,1.8249,0,0,0,0,0,0,0,0,1.7861,1.7873,1.7987,1.7991,1.7996,1.8076,1.805,1.8143,1.8111,1.8067,1.8109,1.8108,1.8175,1.8184,1.8206,1.8284,1.8289,1.8247,1.8251,1.8253,1.8254,0,0,0,0,0,0,0,1.7855,1.7869,1.8004,1.7988,1.7994,1.8002,1.8014,1.8068,1.8124,1.8071,1.8074,1.8087,1.8177,1.8201,1.8209,1.8291,1.8247,1.8252,1.8255,1.8257,1.8413,1.8414,0,0,0,0,0,0,1.7843,1.7863,1.8,1.8007,1.7925,1.8006,1.802,1.8051,1.8124,1.8134,1.8087,1.8088,1.8193,1.8203,1.8214,1.8274,1.8253,1.8258,1.8261,1.8412,1.8413,1.8414,0,0,0,0,0,0,1.7839,1.7855,1.7996,1.7936,1.7955,1.801,1.8045,1.8054,1.8078,1.8136,1.8146,1.8102,1.8192,1.8206,1.8262,1.8279,1.826,1.8265,1.8411,1.8412,1.8414,1.8396,0,0,0,0,0,0,1.7833,1.7853,1.7872,1.7936,1.7958,1.8043,1.8046,1.8057,1.8087,1.8089,1.8152,1.8162,1.8193,1.8254,1.8268,1.8286,1.8269,1.841,1.8411,1.8413,1.8396,1.8397,1.8398,0,0,0,0,0,1.7826,1.7863,1.7873,1.7889,1.7983,1.8044,1.8056,1.8091,1.8088,1.8108,1.8145,1.816,1.8275,1.826,1.8275,1.8295,1.8409,1.8411,1.8413,1.8395,1.8397,1.8398,0,0,0,0,0,0,1.7799,1.7872,1.7884,1.7943,1.7987,1.805,1.8076,1.8092,1.8138,1.8138,1.8179,1.8193,1.8246,1.8276,1.8258,1.8345,1.8342,1.8348,1.8323,1.8326,1.8327,1.8318,1.8273,0,0,0,0,0,1.78,1.7844,1.7905,1.7951,1.7972,1.802,1.8048,1.8071,1.8118,1.8137,1.8178,1.8223,1.827,1.8299,1.8345,1.84,1.8414,1.8421,1.8423,1.8423,1.8427,1.8458,1.8462,1.8421,1.8421,1.8421,0,0,1.7803,1.7848,1.7873,1.7946,1.7983,1.8027,1.8036,1.8082,1.8115,1.8144,1.82,1.8231,1.8284,1.834,1.8366,1.8367,1.8442,1.8426,1.8426,1.843,1.8461,1.8464,1.8468,1.8423,1.8423,1.8422,0,0,1.7829,1.7868,1.791,1.7947,1.8003,1.8034,1.8044,1.8104,1.8127,1.8183,1.8206,1.8245,1.8324,1.8361,1.839,1.8429,1.8444,1.8442,1.8449,1.8478,1.8481,1.8484,1.8498,1.8502,1.8446,1.8446,1.8446,0,1.7825,1.7892,1.7929,1.7974,1.8005,1.8034,1.8077,1.811,1.8178,1.8199,1.8198,1.8297,1.8335,1.8399,1.8409,1.8431,1.8443,1.8436,1.8478,1.8482,1.8485,1.8498,1.8503,1.8446,1.8446,1.8446,1.8446,0,1.7884,1.793,1.7957,1.8022,1.8056,1.81,1.8143,1.8173,1.8193,1.8224,1.828,1.8326,1.8382,1.8399,1.8419,1.8466,1.8464,1.847,1.8468,1.8488,1.8501,1.8506,1.8445,1.8445,1.8445,1.8445,0,0,1.7897,1.7981,1.7991,1.802,1.8083,1.812,1.8164,1.8218,1.8243,1.8288,1.8326,1.8392,1.8398,1.843,1.8455,1.848,1.8508,1.8484,1.8485,1.8486,1.8562,1.8557,1.8562,1.8518,1.8519,1.852,1.8557,0,1.7932,1.8012,1.8046,1.8111,1.8154,1.8181,1.822,1.8262,1.8292,1.8333,1.8366,1.8412,1.8416,1.8436,1.8463,1.8499,1.8523,1.8496,1.8553,1.8555,1.8539,1.8569,1.8564,1.8597,1.8563,1.8564,1.8564,0,1.7983,1.8028,1.8097,1.8155,1.8174,1.8208,1.826,1.8299,1.8347,1.8367,1.8403,1.8426,1.8472,1.8467,1.8532,1.8513,1.8538,1.8559,1.8561,1.8567,1.8561,1.8576,1.8608,1.8613,1.8573,1.8572,1.8571,0,1.7985,1.8064,1.8115,1.814,1.8208,1.8231,1.8261,1.8309,1.8339,1.8384,1.8404,1.8454,1.8481,1.8519,1.8554,1.8547,1.8615,1.8613,1.8632,1.8631,1.8646,1.8644,1.8682,1.8662,1.8662,1.8661,1.8661,0,1.802,1.8061,1.8117,1.8149,1.8195,1.8233,1.8278,1.8309,1.8352,1.8389,1.8416,1.8451,1.8495,1.8535,1.8563,1.8612,1.8624,1.8641,1.8648,1.8639,1.8636,1.8656,1.8654,1.8663,1.8663,1.8662,1.8662,0,1.803,1.807,1.8127,1.8187,1.8203,1.8235,1.8286,1.8317,1.8348,1.8395,1.8409,1.8457,1.8506,1.8545,1.8608,1.8627,1.8678,1.8686,1.8661,1.8665,1.8682,1.868,1.8734,1.8742,1.8716,1.8716,1.8717,0,1.805,1.8082,1.8145,1.8172,1.8202,1.8245,1.8276,1.8315,1.8346,1.8403,1.8427,1.8477,1.852,1.8596,1.8637,1.8685,1.8694,1.8709,1.8702,1.8691,1.8694,1.8692,1.8695,1.871,1.871,1.871,1.8711,0,1.808,1.8098,1.8141,1.8192,1.8228,1.8269,1.8311,1.8332,1.8378,1.8411,1.8461,1.8494,1.8559,1.8608,1.8661,1.869,1.8708,1.8713,1.872,1.8711,1.8695,1.8703,1.8664,1.8711,1.8711,1.8711,1.8711,1.8711,1.8096,1.8125,1.8174,1.8222,1.8257,1.8296,1.8328,1.8363,1.8405,1.8461,1.8481,1.8532,1.8579,1.8652,1.8682,1.8722,1.8723,1.8734,1.8736,1.8738,1.8737,1.8689,1.8732,1.8732,1.8732,1.8732,1.8732,0,1.8127,1.816,1.8203,1.8261,1.8298,1.8311,1.8358,1.8388,1.8433,1.8476,1.8517,1.8574,1.8622,1.8666,1.8716,1.874,1.8749,1.8751,1.875,1.8756,1.8733,1.8722,1.8743,1.8743,1.8743,1.8743,1.8743,1.8743,1.8148,1.8198,1.8222,1.829,1.8322,1.8373,1.8399,1.8434,1.8468,1.8531,1.8571,1.8599,1.8642,1.8695,1.874,1.8751,1.8768,1.8769,1.8782,1.876,1.8758,1.8757,1.8746,1.8772,1.8772,1.8803,1.8803,1.8803]}]]